Über Stratosat TK-1-B
Group: 3 satellites
Beschreibung wird geladen...
Live-Position
3D-Globus wird geladen...
Nächste Überflüge
Höhenverlauf
Altitude vs Time
uPlot chart will show altitude changes over time
Zweizeiliger Elementsatz
1 57323U 23091AX 26074.64681057 .00145017 00000-0 12388-2 0 9993
2 57323 97.5094 152.0501 0002761 359.1106 1.0150 15.69037159148872
Epoch: 15. März 2026 •
Age: 7 hours
Aktueller Status
Höhe 366.1 km
Geschwindigkeit 7.69 km/s
Subsatellitenpunkt 22.69°N,
172.73°W
Startdatum 27. Juni 2023
Alter 2.7 years
Typ other
Technische Details
Klassifizierung Payload
Masse 0.13 kg
Trockenmasse 0.13 kg
Gesamtmasse 0.13 kg
Länge 0.05 m
Durchmesser 0.05 m
Spannweite 0.05 m
Form Box
Hersteller MKS
Bus-Typ TinySat 1TU
Phasenstatus In Orbit
Besitzer/Staat STRAT/MKS/RU
Große Konstellationen
Loading constellations...